EW8080 Weather Reports


Display with metric or nautical units.
time (UTC)temp
F
wind
direction
speed
MPH
gust
MPH
rain 1hr
in
rain 24hr
in
rain mn
in
humidity
%
barometer
mb
20260502123003 56 221 8.0 17.0 0.00 0.00 0.00 72 1013.0
20260502122003 56 202 8.0 17.0 0.00 0.00 0.00 73 1012.8
20260502121003 54 202 9.0 13.0 0.00 0.00 0.00 76 1012.9
20260502115003 52 217 6.0 11.0 0.00 0.00 0.00 79 1012.8
20260502114003 51 187 8.0 15.0 0.00 0.00 0.00 80 1012.7
20260502113003 50 196 6.0 15.0 0.00 0.00 0.00 82 1012.7
20260502112024 50 208 8.0 10.0 0.00 0.00 0.00 82 1012.8
20260502111004 50 222 4.0 12.0 0.00 0.00 0.00 83 1012.7
20260502110024 49 216 7.0 13.0 0.00 0.00 0.00 84 1012.8
20260502105024 48 211 6.0 13.0 0.00 0.00 0.00 85 1012.7
20260502104003 47 215 6.0 9.0 0.00 0.00 0.00 85 1012.7
20260502103024 47 207 6.0 13.0 0.00 0.00 0.00 85 1012.5
20260502102003 46 204 7.0 13.0 0.00 0.00 0.00 85 1012.6
20260502101003 46 214 6.0 10.0 0.00 0.00 0.00 83 1012.8
20260502091003 45 196 3.0 7.0 0.00 0.00 0.00 81 1012.1
20260502071003 45 133 2.0 4.0 0.00 0.00 0.00 77 1012.4
20260502070024 45 141 2.0 3.0 0.00 0.00 0.00 76 1012.2
20260502065003 45 161 2.0 3.0 0.00 0.00 0.00 76 1012.3
20260502064003 46 182 3.0 3.0 0.00 0.00 0.00 76 1012.5
20260502063004 45 145 2.0 3.0 0.00 0.00 0.00 76 1012.5
20260502062003 46 143 1.0 5.0 0.00 0.00 0.00 75 1012.3
20260502061003 46 178 0.0 5.0 0.00 0.00 0.00 75 1012.3
20260502060003 46 204 4.0 6.0 0.00 0.00 0.00 76 1012.6
20260502055003 46 156 3.0 6.0 0.00 0.00 0.00 75 1012.6
20260502054003 46 186 3.0 5.0 0.00 0.00 0.00 75 1012.7
20260502053003 46 166 2.0 5.0 0.00 0.00 0.00 75 1012.5
20260502052024 46 107 2.0 5.0 0.00 0.00 0.00 74 1012.5
20260502051003 47 81 4.0 5.0 0.00 0.00 0.00 73 1012.5
20260502050003 48 101 3.0 5.0 0.00 0.00 0.00 73 1012.5
20260502045003 48 89 2.0 6.0 0.00 0.00 0.00 72 1012.8
20260502044003 48 164 2.0 6.0 0.00 0.00 0.00 71 1012.5
20260502043024 49 211 4.0 6.0 0.00 0.00 0.00 70 1012.6
20260502042024 49 215 3.0 7.0 0.00 0.00 0.00 70 1012.4
20260502041003 49 219 3.0 7.0 0.00 0.00 0.00 70 1012.5
20260502040003 49 225 4.0 6.0 0.00 0.00 0.00 70 1012.3
20260502035004 49 236 5.0 6.0 0.00 0.00 0.00 69 1012.5
20260502034024 49 230 5.0 6.0 0.00 0.00 0.00 69 1012.6
20260502033024 49 239 4.0 8.0 0.00 0.00 0.00 69 1012.4
20260502032003 49 232 4.0 8.0 0.00 0.00 0.00 69 1012.5
20260502031024 49 234 5.0 7.0 0.00 0.00 0.00 68 1012.3
20260502030003 50 239 4.0 7.0 0.00 0.00 0.00 68 1012.1
20260502025025 49 259 3.0 7.0 0.00 0.00 0.00 68 1012.0
20260502024003 50 244 4.0 6.0 0.00 0.00 0.00 68 1012.1
20260502023003 50 228 4.0 6.0 0.00 0.00 0.00 67 1012.1
20260502022003 50 229 5.0 7.0 0.00 0.00 0.00 67 1012.0
20260502021004 50 238 4.0 8.0 0.00 0.00 0.00 66 1012.2
20260502020003 50 251 4.0 8.0 0.00 0.00 0.00 66 1012.3
20260502015003 50 267 4.0 8.0 0.00 0.00 0.00 66 1012.1
20260502014003 51 234 7.0 8.0 0.00 0.00 0.00 65 1012.3
20260502013003 51 231 4.0 7.0 0.00 0.00 0.00 65 1012.1
20260502012003 51 239 5.0 8.0 0.00 0.00 0.00 64 1011.8
20260502011003 52 228 5.0 8.0 0.00 0.00 0.00 64 1011.5
20260502010003 52 235 4.0 9.0 0.00 0.00 0.00 63 1011.8
20260502005024 52 278 4.0 10.0 0.00 0.00 0.00 63 1011.5
20260502004003 53 226 8.0 10.0 0.00 0.00 0.00 63 1011.2
20260502003003 53 223 6.0 8.0 0.00 0.00 0.00 63 1011.0
20260502002003 54 222 5.0 7.0 0.00 0.00 0.00 62 1010.8
20260502001003 54 227 4.0 7.0 0.00 0.00 0.00 62 1010.7
20260502000024 54 223 4.0 7.0 0.00 0.00 0.00 62 1010.5
20260501235003 55 218 5.0 7.0 0.00 0.00 0.00 61 1010.5
20260501234024 56 220 3.0 6.0 0.00 0.00 0.00 60 1010.3
20260501233004 56 211 4.0 9.0 0.00 0.00 0.00 60 1010.1
20260501232003 56 214 5.0 10.0 0.00 0.00 0.00 59 1010.0
20260501231024 57 214 6.0 10.0 0.00 0.00 0.00 58 1010.1
20260501230003 57 207 6.0 13.0 0.00 0.00 0.00 57 1010.1
20260501225003 58 224 6.0 13.0 0.00 0.00 0.00 56 1009.5
20260501224003 58 236 6.0 15.0 0.00 0.00 0.00 57 1009.5
20260501223003 58 223 7.0 19.0 0.00 0.00 0.00 56 1009.8
20260501222003 59 226 7.0 19.0 0.00 0.00 0.00 56 1009.5
20260501221003 59 220 9.0 17.0 0.00 0.00 0.00 54 1009.3
20260501220003 60 211 8.0 15.0 0.00 0.00 0.00 54 1009.2
20260501215003 61 218 9.0 16.0 0.00 0.00 0.00 52 1009.0
20260501214024 61 217 8.0 16.0 0.00 0.00 0.00 51 1009.2
20260501213003 62 226 8.0 16.0 0.00 0.00 0.00 48 1009.0
20260501212003 63 226 7.0 16.0 0.00 0.00 0.00 48 1008.9
20260501211003 64 214 10.0 16.0 0.00 0.00 0.00 43 1009.1
20260501210003 64 256 7.0 19.0 0.00 0.00 0.00 37 1009.1
20260501205003 64 326 9.0 19.0 0.00 0.00 0.00 35 1008.8
20260501204003 64 263 13.0 18.0 0.00 0.00 0.00 38 1009.0
20260501203003 64 274 8.0 19.0 0.00 0.00 0.00 37 1008.8
20260501202003 64 242 13.0 19.0 0.00 0.00 0.00 39 1008.7
20260501201024 64 292 7.0 26.0 0.00 0.00 0.00 37 1008.7
20260501200024 63 274 9.0 26.0 0.00 0.00 0.00 38 1008.8
20260501195003 63 294 10.0 20.0 0.00 0.00 0.00 37 1008.7
20260501194003 63 266 12.0 23.0 0.00 0.00 0.00 38 1008.9
20260501193003 63 276 12.0 23.0 0.00 0.00 0.00 40 1009.1
20260501192003 62 214 5.0 22.0 0.00 0.00 0.00 43 1009.1
20260501191004 62 292 5.0 22.0 0.00 0.00 0.00 41 1009.1
20260501190003 62 297 10.0 19.0 0.00 0.00 0.00 40 1009.4
20260501185003 63 309 9.0 19.0 0.00 0.00 0.00 40 1009.3
20260501184003 63 256 11.0 19.0 0.00 0.00 0.00 43 1009.0
20260501183003 62 324 11.0 19.0 0.00 0.00 0.00 43 1009.3
20260501182024 62 267 6.0 22.0 0.00 0.00 0.00 43 1009.2
20260501181003 62 354 11.0 22.0 0.00 0.00 0.00 45 1009.5
20260501180003 63 257 14.0 21.0 0.00 0.00 0.00 45 1009.4
20260501175002 62 246 7.0 19.0 0.00 0.00 0.00 46 1009.6
20260501174003 61 277 11.0 19.0 0.00 0.00 0.00 50 1009.6
20260501173003 60 313 13.0 19.0 0.00 0.00 0.00 51 1009.9
20260501172003 61 247 6.0 19.0 0.00 0.00 0.00 48 1009.8
20260501171003 62 262 8.0 21.0 0.00 0.01 0.00 48 1009.8
20260501170004 62 289 7.0 21.0 0.00 0.01 0.00 47 1009.9
20260501165003 63 285 12.0 14.0 0.00 0.02 0.00 47 1010.0
20260501164003 61 244 9.0 17.0 0.00 0.04 0.00 49 1009.8
20260501163003 60 323 5.0 17.0 0.00 0.04 0.00 47 1009.9
20260501162004 60 353 12.0 19.0 0.00 0.04 0.00 45 1009.9
20260501161003 59 284 16.0 19.0 0.00 0.04 0.00 49 1010.0
20260501160003 59 19 5.0 23.0 0.00 0.04 0.00 46 1010.1
20260501155003 60 348 14.0 23.0 0.00 0.04 0.00 44 1010.0
20260501154004 62 287 11.0 20.0 0.00 0.04 0.00 48 1010.1
20260501153024 62 256 9.0 17.0 0.00 0.04 0.00 47 1010.1
20260501152003 60 319 11.0 17.0 0.00 0.04 0.00 47 1010.2
20260501151003 60 288 10.0 19.0 0.00 0.04 0.00 49 1010.1
20260501150024 60 347 9.0 19.0 0.00 0.04 0.00 52 1010.1
20260501145003 60 313 13.0 19.0 0.00 0.04 0.00 50 1010.3
20260501144003 60 269 8.0 18.0 0.00 0.04 0.00 53 1010.1
20260501143003 58 219 6.0 18.0 0.00 0.04 0.00 58 1010.4
20260501142003 59 281 10.0 20.0 0.00 0.04 0.00 53 1010.3
20260501141003 58 318 6.0 20.0 0.00 0.04 0.00 54 1010.4